Weather History for KMDZ - March, 2013

Change the Weather History Date:

Thursday, March 28, 2013

  Actual Average Record
Temperature  
Mean Temperature 28 °F -  
Max Temperature 41 °F 43 °F 67 °F (1989)
Min Temperature 15 °F 25 °F -5 °F (1955)
Degree Days  
Heating Degree Days 37    
Moisture  
Dew Point 18 °F    
Average Humidity 62    
Maximum Humidity 93    
Minimum Humidity 42    
Precipitation  
Precipitation 0.00 in - - ()
Sea Level Pressure  
Sea Level Pressure 30.27 in    
Wind  
Wind Speed 2 mph (SW)    
Max Wind Speed 14 mph    
Max Gust Speed -    
Visibility 10 miles    
Events      
Averages and records for this station are not official NWS values.
T = Trace of Precipitation, MM = Missing Value Source: NWS Daily Summary

Daily Weather History Graph

Daily Weather History Graph

Search for Another Location

Airport or City:

Trip Planner

Search our weather history database for the weather conditions in past years. The results will help you decide how hot, cold, wet, or windy it might be!

Date:

Astronomy

Mar. 28, 2013 Rise Set
Actual Time 6:48 AM CDT 7:24 PM CDT
Civil Twilight 6:19 AM CDT 7:53 PM CDT
Nautical Twilight 5:44 AM CDT 8:29 PM CDT
Astronomical Twilight 5:07 AM CDT 9:05 PM CDT
Moon 9:23 PM CDT (3/28) 7:11 AM CDT (3/28)
Length of Visible Light 13h 34m
Length of Day
12h 35m
Full, 98% of the Moon is Illuminated
Mar 28
Full
Apr 2
Last Quarter
Apr 10
New
Apr 18
First Quarter
Apr 25
Full

Hourly Weather History & Observations

Time (CDT) Temp. Windchill Dew Point Humidity Pressure Visibility Wind Dir Wind Speed Gust Speed Precip Events Conditions
12:15 AM 26.6 °F - 15.8 °F 64% 30.27 in 10.0 mi Calm Calm - N/A   Clear
12:35 AM 26.6 °F - 17.6 °F 69% 30.27 in 10.0 mi Calm Calm - N/A   Clear
12:55 AM 24.8 °F - 17.6 °F 74% 30.27 in 10.0 mi Calm Calm - N/A   Clear
1:15 AM 23.0 °F - 15.8 °F 74% 30.27 in 10.0 mi Calm Calm - N/A   Clear
1:35 AM 23.0 °F - 15.8 °F 74% 30.28 in 10.0 mi Calm Calm - N/A   Clear
1:55 AM 23.0 °F - 15.8 °F 74% 30.28 in 10.0 mi Calm Calm - N/A   Clear
2:15 AM 21.2 °F - 15.8 °F 80% 30.28 in 10.0 mi Calm Calm - N/A   Clear
2:35 AM 23.0 °F - 15.8 °F 74% 30.28 in 10.0 mi Calm Calm - N/A   Clear
2:55 AM 21.2 °F - 15.8 °F 80% 30.28 in 10.0 mi Calm Calm - N/A   Clear
3:15 AM 23.0 °F - 15.8 °F 74% 30.28 in 10.0 mi Calm Calm - N/A   Clear
3:35 AM 19.4 °F - 15.8 °F 86% 30.28 in 3.0 mi Calm Calm - N/A   Haze
3:55 AM 19.4 °F - 14.0 °F 80% 30.28 in 4.0 mi Calm Calm - N/A   Haze
4:55 AM 19.4 °F - 15.8 °F 86% 30.28 in 10.0 mi Calm Calm - N/A   Clear
5:15 AM 17.6 °F - 14.0 °F 86% 30.28 in 10.0 mi Calm Calm - N/A   Clear
5:35 AM 17.6 °F - 15.8 °F 93% 30.28 in 7.0 mi Calm Calm - N/A   Clear
5:55 AM 17.6 °F - 14.0 °F 86% 30.28 in 7.0 mi Calm Calm - N/A   Clear
6:35 AM 17.6 °F - 14.0 °F 86% 30.28 in 10.0 mi Calm Calm - N/A   Clear
6:55 AM 15.8 °F - 12.2 °F 86% 30.28 in 10.0 mi Calm Calm - N/A   Clear
7:15 AM 17.6 °F - 14.0 °F 86% 30.29 in 10.0 mi Calm Calm - N/A   Clear
7:35 AM 17.6 °F - 14.0 °F 86% 30.29 in 10.0 mi Calm Calm - N/A   Clear
7:55 AM 17.6 °F - 15.8 °F 93% 30.29 in 10.0 mi Calm Calm - N/A   Clear
8:15 AM 19.4 °F - 15.8 °F 86% 30.29 in 10.0 mi Calm Calm - N/A   Clear
8:35 AM 19.4 °F - 15.8 °F 86% 30.29 in 5.0 mi Calm Calm - N/A   Haze
8:55 AM 24.8 °F - 15.8 °F 69% 30.29 in 10.0 mi Calm Calm - N/A   Clear
9:15 AM 26.6 °F - 15.8 °F 64% 30.29 in 10.0 mi Calm Calm - N/A   Clear
9:35 AM 28.4 °F - 15.8 °F 59% 30.29 in 10.0 mi Calm Calm - N/A   Clear
9:55 AM 33.8 °F - 17.6 °F 52% 30.29 in 10.0 mi Calm Calm - N/A   Clear
10:15 AM 33.8 °F - 17.6 °F 52% 30.29 in 10.0 mi Calm Calm - N/A   Clear
10:35 AM 35.6 °F - 19.4 °F 52% 30.29 in 10.0 mi Calm Calm - N/A   Clear
10:55 AM 35.6 °F 32.8 °F 19.4 °F 52% 30.29 in 10.0 mi SSW 3.5 mph - N/A   Clear
11:15 AM 37.4 °F 34.9 °F 19.4 °F 48% 30.29 in 10.0 mi SW 3.5 mph - N/A   Clear
11:35 AM 37.4 °F 32.8 °F 19.4 °F 48% 30.29 in 10.0 mi SSW 5.8 mph - N/A   Clear
11:55 AM 37.4 °F 31.4 °F 19.4 °F 48% 30.28 in 10.0 mi SSW 8.1 mph - N/A   Clear
12:15 PM 39.2 °F 33.6 °F 19.4 °F 45% 30.28 in 10.0 mi SSW 8.1 mph - N/A   Clear
12:35 PM 39.2 °F 33.0 °F 19.4 °F 45% 30.28 in 10.0 mi SW 9.2 mph - N/A   Clear
12:55 PM 39.2 °F 33.6 °F 19.4 °F 45% 30.28 in 10.0 mi SW 8.1 mph - N/A   Clear
1:15 PM 39.2 °F 33.6 °F 21.2 °F 49% 30.27 in 10.0 mi SSW 8.1 mph - N/A   Clear
1:35 PM 39.2 °F 34.2 °F 21.2 °F 49% 30.27 in 10.0 mi SSW 6.9 mph - N/A   Clear
1:55 PM 39.2 °F 34.2 °F 21.2 °F 49% 30.26 in 10.0 mi South 6.9 mph - N/A   Clear
2:15 PM 41.0 °F 35.2 °F 19.4 °F 42% 30.26 in 10.0 mi SSW 9.2 mph - N/A   Clear
2:35 PM 41.0 °F 35.2 °F 19.4 °F 42% 30.25 in 10.0 mi WSW 9.2 mph - N/A   Clear
3:35 PM 41.0 °F 34.7 °F 19.4 °F 42% 30.24 in 10.0 mi WSW 10.4 mph - N/A   Clear
3:55 PM 39.2 °F 32.5 °F 21.2 °F 49% 30.23 in 10.0 mi SW 10.4 mph - N/A   Clear
4:15 PM 39.2 °F 31.2 °F 21.2 °F 49% 30.23 in 10.0 mi SW 13.8 mph - N/A   Clear
4:35 PM 39.2 °F 32.0 °F 19.4 °F 45% 30.23 in 10.0 mi SW 11.5 mph - N/A   Clear
4:55 PM 39.2 °F 32.0 °F 21.2 °F 49% 30.23 in 10.0 mi SW 11.5 mph - N/A   Clear
5:15 PM 39.2 °F 32.5 °F 21.2 °F 49% 30.23 in 10.0 mi WSW 10.4 mph - N/A   Clear
5:35 PM 39.2 °F 32.5 °F 21.2 °F 49% 30.23 in 10.0 mi WSW 10.4 mph - N/A   Clear
5:55 PM 39.2 °F 32.5 °F 21.2 °F 49% 30.23 in 10.0 mi WSW 10.4 mph - N/A   Clear
6:15 PM 39.2 °F 32.5 °F 21.2 °F 49% 30.23 in 10.0 mi WSW 10.4 mph - N/A   Clear
6:35 PM 39.2 °F 33.6 °F 21.2 °F 49% 30.23 in 10.0 mi WSW 8.1 mph - N/A   Clear
6:55 PM 37.4 °F 30.3 °F 21.2 °F 52% 30.23 in 10.0 mi WSW 10.4 mph - N/A   Clear
7:55 PM 35.6 °F 29.9 °F 19.4 °F 52% 30.24 in 10.0 mi WSW 6.9 mph - N/A   Clear
8:15 PM 35.6 °F 29.9 °F 19.4 °F 52% 30.24 in 10.0 mi WSW 6.9 mph - N/A   Clear
8:35 PM 33.8 °F 28.6 °F 19.4 °F 56% 30.25 in 10.0 mi WSW 5.8 mph - N/A   Clear
8:55 PM 33.8 °F 28.6 °F 17.6 °F 52% 30.25 in 10.0 mi WSW 5.8 mph - N/A   Clear
9:15 PM 33.8 °F 28.6 °F 17.6 °F 52% 30.25 in 10.0 mi West 5.8 mph - N/A   Clear
9:35 PM 33.8 °F 27.7 °F 17.6 °F 52% 30.26 in 10.0 mi West 6.9 mph - N/A   Clear
9:55 PM 33.8 °F 28.6 °F 17.6 °F 52% 30.26 in 10.0 mi West 5.8 mph - N/A   Clear
10:15 PM 33.8 °F 28.6 °F 17.6 °F 52% 30.26 in 10.0 mi West 5.8 mph - N/A   Clear
10:35 PM 32.0 °F 27.5 °F 17.6 °F 55% 30.26 in 10.0 mi West 4.6 mph - N/A   Clear
10:55 PM 30.2 °F 26.7 °F 17.6 °F 60% 30.26 in 10.0 mi West 3.5 mph - N/A   Clear
11:15 PM 30.2 °F - 17.6 °F 60% 30.26 in 10.0 mi Calm Calm - N/A   Clear
11:35 PM 30.2 °F - 17.6 °F 60% 30.26 in 10.0 mi Calm Calm - N/A   Clear
11:55 PM 28.4 °F - 17.6 °F 64% 30.26 in 7.0 mi Calm Calm - N/A   Clear